This is the latest recevied weather packets stored in our database for station/object KY4EF. If no packets are shown the sender has not sent any weather packets the latest 10 day(s).
| Time | Temp. | Humidity | Pressure | Rain* | Wind** | Luminosity | Snow |
|---|---|---|---|---|---|---|---|
| 1777593970 | 14.44° C | 51% | 1011.3 hPa | 0 mm | - | 8 W/m² | - |
| 1777593667 | 14.44° C | 52% | 1011.4 hPa | 0 mm | - | 9 W/m² | - |
| 1777593363 | 14.44° C | 51% | 1011.3 hPa | 0 mm | - | 14 W/m² | - |
| 1777593062 | 15° C | 51% | 1011.3 hPa | 0 mm | - | 23 W/m² | - |
| 1777592761 | 15° C | 51% | 1011.2 hPa | 0 mm | - | 19 W/m² | - |
| 1777592457 | 15° C | 50% | 1011.3 hPa | 0 mm | - | 33 W/m² | - |
| 1777592157 | 15° C | 50% | 1011.2 hPa | 0 mm | - | 37 W/m² | - |
| 1777591855 | 15° C | 50% | 1011.3 hPa | 0 mm | - | 36 W/m² | - |
| 1777591550 | 15° C | 50% | 1011.2 hPa | 0 mm | - | 36 W/m² | - |
| 1777591247 | 15.56° C | 49% | 1011.4 hPa | 0 mm | - | 39 W/m² | - |
| 1777590943 | 15.56° C | 48% | 1011.4 hPa | 0 mm | - | 38 W/m² | - |
| 1777590639 | 15.56° C | 48% | 1011.4 hPa | 0 mm | - | 44 W/m² | - |
| 1777590335 | 16.11° C | 46% | 1011.4 hPa | 0 mm | - | 60 W/m² | - |
| 1777590033 | 16.11° C | 47% | 1011.4 hPa | 0 mm | - | 59 W/m² | - |
| 1777589729 | 16.11° C | 47% | 1011.3 hPa | 0 mm | - | 54 W/m² | - |
| 1777589427 | 16.11° C | 46% | 1011.5 hPa | 0 mm | - | 68 W/m² | - |
| 1777589123 | 16.11° C | 46% | 1011.4 hPa | 0 mm | - | 81 W/m² | - |
| 1777588819 | 16.11° C | 47% | 1011.3 hPa | 0 mm | - | 70 W/m² | - |
| 1777588515 | 16.67° C | 46% | 1011.3 hPa | 0 mm | - | 62 W/m² | - |
| 1777588211 | 16.67° C | 45% | 1011.4 hPa | 0 mm | - | 69 W/m² | - |
| 1777587906 | 16.67° C | 47% | 1011.4 hPa | 0 mm | - | 72 W/m² | - |
| 1777587602 | 16.67° C | 47% | 1011.4 hPa | 0 mm | - | 92 W/m² | - |
| 1777587297 | 16.67° C | 46% | 1011.4 hPa | 0 mm | - | 83 W/m² | - |
| 1777586993 | 17.22° C | 46% | 1011.4 hPa | 0 mm | - | 89 W/m² | - |
| 1777586689 | 17.22° C | 46% | 1011.2 hPa | 0 mm | - | 108 W/m² | - |
* Rain latest hour (hover to see other rain measurements)
** Current wind speed in m/s (hover to see current wind gust speed)